contact:dominique.lefevre@mio.osupytheas.fr, maurice.libes@osupytheas.fr, didier.mallarino@osupytheas.fr
Project:EMSO http://www.emso-fr.org/EMSO-France
Depth: 2436.0 m
Title:EMSO Ligure Ouest : Data MII capteur AQUADOPP
Date,Latitude,Longitude,X_East,Y_North,Z_Up,Amplitude_X,Amplitude_Y,Amplitude_Z,Batterie,SoundSpeed,Heading,Pitch,Roll,Pressure,TIS,Speed,Direction
, degrees North, degrees East, m.s-1, m.s-1,m.s-1, 1, 1, 1, Volt, m.s-1, degree, degree, degree, dbar, degree_C, m.s-1, degree
2023-12-16T00:04:03,42.805,6.029,-0.049,0.062,-0.025,113.0,110.0,108.0,13.4,1505.2,353.6,-0.8,1.8,2471.543,13.29,0.079,321.7
2023-12-16T00:07:03,42.805,6.029,-0.024,0.039,-0.026,112.0,111.0,107.0,13.4,1505.2,1.6,-0.8,1.8,2471.561,13.29,0.045,328.4
2023-12-16T00:10:03,42.805,6.029,-0.032,0.033,0.012,112.0,110.0,107.0,13.4,1505.2,350.2,-0.7,1.8,2471.567,13.29,0.045,315.9
2023-12-16T00:13:03,42.805,6.029,-0.042,0.05,-0.014,112.0,111.0,108.0,13.4,1505.2,352.5,-0.8,1.8,2471.561,13.29,0.065,320.0
2023-12-16T00:16:03,42.805,6.029,-0.054,0.036,-0.026,113.0,111.0,108.0,13.4,1505.2,356.6,-0.8,1.8,2471.515,13.29,0.064,303.7
2023-12-16T00:19:03,42.805,6.029,-0.03,0.033,0.002,113.0,109.0,108.0,13.4,1505.2,350.1,-0.7,1.8,2471.521,13.29,0.044,317.7
2023-12-16T00:22:03,42.805,6.029,-0.046,0.039,-0.017,112.0,110.0,107.0,13.4,1505.2,350.4,-0.7,1.8,2471.572,13.29,0.06,310.3
2023-12-16T00:25:03,42.805,6.029,-0.039,0.044,-0.036,112.0,111.0,107.0,13.4,1505.2,345.9,-0.8,1.8,2471.509,13.29,0.058,318.4
2023-12-16T00:28:03,42.805,6.029,-0.025,0.066,-0.012,112.0,110.0,107.0,13.3,1505.2,345.2,-0.8,1.8,2471.516,13.29,0.07,339.3
2023-12-16T00:31:03,42.805,6.029,-0.06,0.032,-0.005,112.0,110.0,108.0,13.3,1505.2,347.0,-0.8,1.8,2471.557,13.29,0.067,298.1
2023-12-16T00:34:03,42.805,6.029,-0.039,0.059,-0.014,112.0,112.0,108.0,13.4,1505.2,350.0,-0.8,1.8,2471.542,13.29,0.07,326.5
2023-12-16T00:37:03,42.805,6.029,-0.044,0.058,-0.026,113.0,111.0,107.0,13.4,1505.2,359.1,-0.8,1.8,2471.542,13.29,0.072,322.8
2023-12-16T00:40:03,42.805,6.029,-0.039,0.052,0.002,112.0,110.0,107.0,13.4,1505.2,340.2,-0.7,1.8,2471.521,13.29,0.064,323.1
2023-12-16T00:43:03,42.805,6.029,-0.038,0.024,-0.039,113.0,111.0,108.0,13.4,1505.2,351.1,-0.7,1.8,2471.486,13.29,0.044,302.3
2023-12-16T00:46:03,42.805,6.029,-0.037,0.052,-0.014,111.0,110.0,109.0,13.4,1505.2,348.9,-0.8,1.8,2471.476,13.29,0.063,324.6
2023-12-16T00:49:03,42.805,6.029,-0.038,0.065,-0.02,113.0,110.0,109.0,13.3,1505.2,348.3,-0.8,1.8,2471.506,13.29,0.075,329.7
2023-12-16T00:52:03,42.805,6.029,-0.049,0.043,0.003,112.0,110.0,107.0,13.4,1505.2,343.7,-0.8,1.8,2471.493,13.29,0.065,311.3
2023-12-16T00:55:03,42.805,6.029,-0.035,0.045,-0.029,113.0,110.0,107.0,13.4,1505.2,1.6,-0.7,1.8,2471.513,13.29,0.057,322.1
2023-12-16T00:58:03,42.805,6.029,-0.037,0.049,-0.037,112.0,111.0,108.0,13.4,1505.2,351.8,-0.8,1.8,2471.538,13.29,0.061,322.9
2023-12-16T01:04:03,42.805,6.029,-0.014,0.054,0.004,113.0,111.0,109.0,13.4,1505.2,1.6,-0.8,1.8,2471.566,13.29,0.055,345.5
2023-12-16T01:07:03,42.805,6.029,-0.046,0.035,-0.014,111.0,110.0,107.0,13.4,1505.2,340.8,-0.8,1.8,2471.627,13.29,0.057,307.3
2023-12-16T01:10:03,42.805,6.029,-0.051,0.058,-0.024,112.0,110.0,106.0,13.3,1505.2,342.0,-0.8,1.8,2471.566,13.29,0.077,318.7
2023-12-16T01:13:03,42.805,6.029,-0.021,0.051,-0.011,112.0,111.0,107.0,13.4,1505.2,1.6,-0.8,1.8,2471.521,13.29,0.055,337.6
2023-12-16T01:16:03,42.805,6.029,-0.038,0.071,-0.001,112.0,110.0,108.0,13.4,1505.2,353.7,-0.8,1.8,2471.491,13.29,0.08,331.8
2023-12-16T01:19:03,42.805,6.029,-0.045,0.053,0.015,111.0,110.0,107.0,13.3,1505.2,344.5,-0.8,1.8,2471.507,13.29,0.069,319.7
2023-12-16T01:22:03,42.805,6.029,-0.007,0.051,0.0,112.0,108.0,107.0,13.4,1505.2,4.8,-0.8,1.8,2471.508,13.29,0.051,352.2
2023-12-16T01:25:03,42.805,6.029,-0.051,0.047,-0.01,112.0,109.0,108.0,13.4,1505.2,340.5,-0.8,1.8,2471.5,13.29,0.069,312.7
2023-12-16T01:28:03,42.805,6.029,-0.039,0.064,-0.003,112.0,111.0,106.0,13.4,1505.2,356.5,-0.8,1.8,2471.477,13.29,0.074,328.6
2023-12-16T01:31:03,42.805,6.029,-0.04,0.036,-0.002,111.0,112.0,108.0,13.4,1505.2,353.8,-0.7,1.8,2471.502,13.29,0.053,312.0
2023-12-16T01:34:03,42.805,6.029,-0.039,0.045,-0.027,111.0,111.0,107.0,13.4,1505.2,1.6,-0.7,1.8,2471.466,13.29,0.059,319.1
2023-12-16T01:37:03,42.805,6.029,-0.035,0.046,-0.009,111.0,110.0,107.0,13.4,1505.2,341.8,-0.8,1.8,2471.566,13.29,0.057,322.7
2023-12-16T01:40:03,42.805,6.029,-0.032,0.018,-0.013,110.0,109.0,108.0,13.4,1505.2,355.4,-0.8,1.8,2471.471,13.29,0.036,299.4
2023-12-16T01:43:03,42.805,6.029,-0.041,0.043,0.013,111.0,110.0,107.0,13.4,1505.2,354.2,-0.7,1.8,2471.508,13.29,0.059,316.4
2023-12-16T01:46:03,42.805,6.029,-0.048,0.024,-0.004,112.0,111.0,109.0,13.4,1505.2,342.0,-0.8,1.8,2471.477,13.29,0.053,296.6
2023-12-16T01:49:03,42.805,6.029,-0.033,0.048,0.011,112.0,109.0,108.0,13.4,1505.2,348.3,-0.8,1.8,2471.507,13.29,0.058,325.5
2023-12-16T01:52:03,42.805,6.029,-0.062,0.055,-0.029,112.0,109.0,107.0,13.4,1505.2,341.0,-0.7,1.8,2471.496,13.29,0.082,311.6
2023-12-16T01:55:03,42.805,6.029,-0.039,0.03,-0.036,111.0,108.0,108.0,13.3,1505.2,357.4,-0.8,1.8,2471.469,13.29,0.049,307.6
2023-12-16T01:58:03,42.805,6.029,-0.023,0.042,0.006,112.0,111.0,107.0,13.3,1505.2,349.5,-0.7,1.8,2471.54,13.29,0.047,331.3
2023-12-16T02:04:03,42.805,6.029,-0.033,0.043,-0.04,112.0,110.0,107.0,13.4,1505.2,356.7,-0.8,1.8,2471.555,13.29,0.054,322.5
2023-12-16T02:07:03,42.805,6.029,-0.047,0.048,-0.003,112.0,110.0,107.0,13.4,1505.2,351.6,-0.8,1.8,2471.539,13.29,0.067,315.6
2023-12-16T02:10:03,42.805,6.029,-0.04,0.033,0.034,111.0,110.0,107.0,13.4,1505.2,349.0,-0.8,1.8,2471.506,13.29,0.051,309.5
2023-12-16T02:13:03,42.805,6.029,-0.064,0.02,-0.059,112.0,110.0,107.0,13.4,1505.2,339.3,-0.8,1.8,2471.474,13.29,0.067,287.4
2023-12-16T02:16:03,42.805,6.029,-0.003,0.065,0.001,111.0,110.0,107.0,13.3,1505.2,2.3,-0.8,1.8,2471.496,13.29,0.065,357.4
2023-12-16T02:19:03,42.805,6.029,-0.054,0.027,0.013,111.0,110.0,107.0,13.4,1505.2,351.3,-0.8,1.8,2471.497,13.29,0.06,296.6
2023-12-16T02:22:03,42.805,6.029,-0.023,0.047,-0.035,111.0,109.0,108.0,13.3,1505.2,0.7,-0.8,1.8,2471.459,13.29,0.052,333.9
2023-12-16T02:25:03,42.805,6.029,-0.029,0.051,0.003,111.0,110.0,108.0,13.4,1505.2,348.0,-0.8,1.8,2471.484,13.29,0.058,330.4
2023-12-16T02:28:03,42.805,6.029,-0.028,0.072,0.01,112.0,110.0,107.0,13.4,1505.2,358.2,-0.8,1.8,2471.481,13.29,0.077,338.8
2023-12-16T02:31:03,42.805,6.029,-0.019,0.071,0.027,112.0,109.0,107.0,13.4,1505.2,355.9,-0.8,1.8,2471.465,13.29,0.073,345.0
2023-12-16T02:34:03,42.805,6.029,-0.034,0.048,-0.032,111.0,110.0,106.0,13.4,1505.2,0.0,-0.8,1.8,2471.493,13.29,0.058,324.7
2023-12-16T02:37:03,42.805,6.029,-0.035,0.059,-0.005,111.0,111.0,107.0,13.3,1505.2,358.3,-0.8,1.8,2471.486,13.29,0.068,329.3
2023-12-16T02:40:03,42.805,6.029,-0.037,0.058,0.001,112.0,110.0,107.0,13.3,1505.2,349.8,-0.7,1.8,2471.472,13.29,0.068,327.5
2023-12-16T02:43:03,42.805,6.029,-0.047,0.069,-0.011,111.0,110.0,108.0,13.4,1505.2,350.0,-0.8,1.8,2471.484,13.29,0.083,325.7
2023-12-16T02:46:03,42.805,6.029,-0.028,0.048,0.015,112.0,110.0,107.0,13.3,1505.2,349.6,-0.8,1.8,2471.459,13.29,0.055,329.7
2023-12-16T02:49:03,42.805,6.029,-0.025,0.045,0.0,112.0,109.0,107.0,13.4,1505.2,345.3,-0.8,1.8,2471.437,13.29,0.051,330.9
2023-12-16T02:52:03,42.805,6.029,-0.037,0.042,-0.034,111.0,110.0,108.0,13.3,1505.2,340.2,-0.7,1.8,2471.471,13.29,0.055,318.6
2023-12-16T02:55:03,42.805,6.029,-0.03,0.058,-0.022,112.0,110.0,107.0,13.4,1505.2,1.6,-0.8,1.8,2471.502,13.29,0.065,332.6
2023-12-16T02:58:03,42.805,6.029,-0.045,0.046,-0.011,112.0,111.0,108.0,13.4,1505.2,347.6,-0.7,1.8,2471.486,13.29,0.064,315.6
2023-12-16T03:04:03,42.805,6.029,-0.057,0.059,-0.005,111.0,111.0,107.0,13.3,1505.2,345.5,-0.7,1.8,2471.514,13.29,0.082,316.0
2023-12-16T03:07:03,42.805,6.029,-0.054,0.06,0.01,112.0,110.0,108.0,13.3,1505.2,344.8,-0.8,1.8,2471.503,13.29,0.08,318.0
2023-12-16T03:10:03,42.805,6.029,-0.044,0.071,0.015,112.0,110.0,107.0,13.3,1505.2,358.3,-0.8,1.8,2471.498,13.29,0.083,328.2
2023-12-16T03:13:03,42.805,6.029,-0.026,0.044,-0.045,111.0,110.0,106.0,13.4,1505.2,345.5,-0.8,1.8,2471.528,13.29,0.051,329.4
2023-12-16T03:16:03,42.805,6.029,-0.055,0.051,0.014,111.0,111.0,107.0,13.4,1505.2,341.5,-0.8,1.8,2471.477,13.29,0.075,312.8
2023-12-16T03:19:03,42.805,6.029,-0.034,0.042,-0.054,112.0,109.0,107.0,13.4,1505.2,347.9,-0.7,1.8,2471.507,13.29,0.054,321.0
2023-12-16T03:22:03,42.805,6.029,-0.028,0.053,-0.004,112.0,110.0,107.0,13.4,1505.2,0.8,-0.8,1.8,2471.504,13.29,0.059,332.1
2023-12-16T03:25:03,42.805,6.029,-0.041,0.065,0.036,111.0,110.0,107.0,13.3,1505.2,354.9,-0.8,1.8,2471.476,13.29,0.076,327.8
2023-12-16T03:28:03,42.805,6.029,-0.053,0.059,0.009,111.0,110.0,108.0,13.4,1505.2,341.0,-0.8,1.8,2471.485,13.29,0.079,318.1
2023-12-16T03:31:03,42.805,6.029,-0.033,0.065,0.0,112.0,110.0,108.0,13.4,1505.2,347.9,-0.7,1.8,2471.514,13.29,0.072,333.1
2023-12-16T03:34:03,42.805,6.029,-0.042,0.042,-0.012,112.0,110.0,106.0,13.4,1505.2,351.0,-0.8,1.8,2471.463,13.29,0.059,315.0
2023-12-16T03:37:03,42.805,6.029,-0.061,0.062,-0.009,111.0,110.0,107.0,13.4,1505.2,353.1,-0.7,1.8,2471.517,13.29,0.086,315.5
2023-12-16T03:40:03,42.805,6.029,-0.061,0.055,0.005,111.0,110.0,107.0,13.3,1505.2,344.9,-0.8,1.8,2471.483,13.29,0.082,312.0
2023-12-16T03:43:03,42.805,6.029,-0.044,0.046,-0.001,111.0,110.0,107.0,13.4,1505.2,339.2,-0.8,1.8,2471.5,13.29,0.063,316.3
2023-12-16T03:46:03,42.805,6.029,-0.023,0.073,0.023,111.0,109.0,106.0,13.4,1505.2,0.7,-0.8,1.8,2471.445,13.29,0.076,342.5
2023-12-16T03:49:03,42.805,6.029,-0.022,0.075,0.014,111.0,110.0,108.0,13.4,1505.2,349.0,-0.8,1.8,2471.506,13.29,0.078,343.7
2023-12-16T03:52:03,42.805,6.029,-0.036,0.066,0.017,112.0,109.0,108.0,13.4,1505.2,352.7,-0.8,1.8,2471.48,13.29,0.075,331.4
2023-12-16T03:55:03,42.805,6.029,-0.046,0.073,-0.023,111.0,109.0,106.0,13.4,1505.2,353.1,-0.8,1.8,2471.489,13.29,0.086,327.8
2023-12-16T03:58:03,42.805,6.029,-0.027,0.056,0.016,111.0,110.0,107.0,13.4,1505.2,348.5,-0.7,1.8,2471.511,13.29,0.062,334.3
2023-12-16T04:04:03,42.805,6.029,-0.03,0.058,0.029,112.0,110.0,107.0,13.4,1505.2,349.2,-0.8,1.8,2471.55,13.29,0.065,332.6
2023-12-16T04:07:03,42.805,6.029,-0.027,0.076,0.007,111.0,110.0,107.0,13.4,1505.2,357.6,-0.8,1.8,2471.533,13.29,0.08,340.4
2023-12-16T04:10:03,42.805,6.029,-0.038,0.047,0.024,110.0,110.0,107.0,13.4,1505.2,348.3,-0.8,1.8,2471.529,13.29,0.06,321.0
2023-12-16T04:13:03,42.805,6.029,-0.033,0.065,0.023,112.0,110.0,107.0,13.4,1505.2,348.2,-0.8,1.8,2471.501,13.29,0.072,333.1
2023-12-16T04:16:03,42.805,6.029,-0.042,0.063,0.003,111.0,110.0,107.0,13.3,1505.2,345.7,-0.8,1.8,2471.495,13.29,0.075,326.3
2023-12-16T04:19:03,42.805,6.029,-0.035,0.068,0.039,111.0,110.0,107.0,13.4,1505.2,338.7,-0.8,1.8,2471.506,13.29,0.076,332.8
2023-12-16T04:22:03,42.805,6.029,-0.044,0.069,0.012,111.0,110.0,108.0,13.4,1505.2,3.1,-0.8,1.8,2471.494,13.29,0.081,327.5
2023-12-16T04:25:03,42.805,6.029,-0.043,0.05,0.007,110.0,109.0,106.0,13.3,1505.2,356.6,-0.8,1.8,2471.504,13.29,0.065,319.3
2023-12-16T04:28:03,42.805,6.029,-0.003,0.05,0.001,110.0,110.0,107.0,13.4,1505.2,356.0,-0.8,1.8,2471.512,13.29,0.05,356.6
2023-12-16T04:31:03,42.805,6.029,-0.033,0.049,0.044,111.0,109.0,107.0,13.4,1505.2,347.1,-0.8,1.8,2471.525,13.29,0.059,326.0
2023-12-16T04:34:03,42.805,6.029,-0.046,0.051,-0.018,111.0,109.0,108.0,13.4,1505.2,340.0,-0.8,1.8,2471.483,13.29,0.068,318.0
2023-12-16T04:37:03,42.805,6.029,-0.01,0.058,0.016,111.0,110.0,106.0,13.4,1505.2,4.0,-0.8,1.8,2471.479,13.29,0.058,350.2
2023-12-16T04:40:03,42.805,6.029,-0.025,0.064,0.0,112.0,110.0,107.0,13.4,1505.2,345.1,-0.7,1.8,2471.486,13.29,0.068,338.7
2023-12-16T04:43:03,42.805,6.029,-0.023,0.043,0.037,111.0,109.0,107.0,13.3,1505.2,341.8,-0.8,1.8,2471.514,13.29,0.048,331.9
2023-12-16T04:46:03,42.805,6.029,-0.032,0.054,-0.013,110.0,110.0,108.0,13.4,1505.2,357.6,-0.8,1.8,2471.494,13.29,0.062,329.3
2023-12-16T04:49:03,42.805,6.029,-0.032,0.065,0.028,111.0,109.0,106.0,13.3,1505.2,349.1,-0.8,1.8,2471.486,13.29,0.072,333.8
2023-12-16T04:52:03,42.805,6.029,-0.022,0.046,0.01,112.0,109.0,107.0,13.3,1505.2,358.3,-0.8,1.8,2471.491,13.29,0.05,334.4
2023-12-16T04:55:03,42.805,6.029,-0.033,0.021,0.035,111.0,110.0,107.0,13.4,1505.2,340.1,-0.8,1.8,2471.512,13.29,0.039,302.5
2023-12-16T04:58:03,42.805,6.029,-0.024,0.054,-0.001,111.0,110.0,106.0,13.3,1505.2,3.1,-0.8,1.8,2471.517,13.29,0.059,336.0
2023-12-16T05:04:03,42.805,6.029,-0.037,0.037,0.007,112.0,110.0,108.0,13.3,1505.2,338.6,-0.8,1.8,2471.573,13.29,0.052,315.0
2023-12-16T05:07:03,42.805,6.029,-0.019,0.051,0.0,112.0,110.0,106.0,13.4,1505.2,350.4,-0.8,1.8,2471.561,13.29,0.054,339.6
2023-12-16T05:10:03,42.805,6.029,-0.017,0.071,-0.006,112.0,109.0,107.0,13.4,1505.2,3.1,-0.8,1.8,2471.507,13.29,0.073,346.5
2023-12-16T05:13:03,42.805,6.029,-0.019,0.067,0.011,110.0,110.0,107.0,13.3,1505.2,349.7,-0.8,1.8,2471.566,13.29,0.069,344.2
2023-12-16T05:16:03,42.805,6.029,-0.014,0.036,0.009,111.0,110.0,107.0,13.4,1505.2,339.4,-0.8,1.8,2471.524,13.29,0.038,338.8
2023-12-16T05:19:03,42.805,6.029,-0.032,0.067,-0.002,111.0,110.0,107.0,13.4,1505.2,2.4,-0.8,1.8,2471.556,13.29,0.074,334.5
2023-12-16T05:22:03,42.805,6.029,-0.024,0.067,0.007,112.0,110.0,106.0,13.4,1505.2,350.0,-0.7,1.8,2471.513,13.29,0.071,340.3
2023-12-16T05:25:03,42.805,6.029,-0.01,0.049,-0.007,110.0,110.0,107.0,13.3,1505.2,356.9,-0.8,1.8,2471.545,13.29,0.05,348.5
2023-12-16T05:28:03,42.805,6.029,-0.023,0.061,-0.017,111.0,110.0,107.0,13.4,1505.2,348.5,-0.8,1.8,2471.525,13.29,0.065,339.3
2023-12-16T05:31:03,42.805,6.029,-0.031,0.046,0.034,111.0,111.0,107.0,13.4,1505.2,338.0,-0.8,1.8,2471.522,13.29,0.055,326.0
2023-12-16T05:34:03,42.805,6.029,-0.005,0.068,-0.006,111.0,111.0,107.0,13.4,1505.2,3.2,-0.8,1.8,2471.528,13.29,0.068,355.8
2023-12-16T05:37:03,42.805,6.029,-0.024,0.06,0.022,111.0,110.0,108.0,13.4,1505.2,356.6,-0.8,1.8,2471.566,13.29,0.064,338.2
2023-12-16T05:40:03,42.805,6.029,-0.03,0.043,0.023,110.0,109.0,107.0,13.4,1505.2,339.3,-0.8,1.8,2471.529,13.29,0.052,325.1
2023-12-16T05:43:03,42.805,6.029,-0.042,0.045,0.024,112.0,109.0,107.0,13.4,1505.2,353.9,-0.8,1.8,2471.559,13.29,0.061,317.0
2023-12-16T05:46:03,42.805,6.029,-0.038,0.043,-0.015,111.0,110.0,106.0,13.3,1505.2,339.1,-0.8,1.8,2471.552,13.29,0.057,318.5
2023-12-16T05:49:03,42.805,6.029,-0.005,0.054,0.0,111.0,109.0,107.0,13.4,1505.2,356.5,-0.8,1.8,2471.547,13.29,0.054,354.7
2023-12-16T05:52:03,42.805,6.029,-0.038,0.047,0.006,111.0,109.0,106.0,13.4,1505.2,338.0,-0.8,1.8,2471.534,13.29,0.06,321.0
2023-12-16T05:55:03,42.805,6.029,-0.017,0.05,0.01,110.0,110.0,107.0,13.4,1505.2,353.0,-0.8,1.8,2471.51,13.29,0.052,341.2
2023-12-16T05:58:03,42.805,6.029,-0.006,0.06,0.012,112.0,110.0,107.0,13.4,1505.2,339.8,-0.8,1.8,2471.559,13.29,0.06,354.3
2023-12-16T06:04:03,42.805,6.029,-0.018,0.073,0.023,112.0,109.0,113.0,13.4,1505.2,340.0,-0.7,1.8,2471.615,13.29,0.075,346.2
2023-12-16T06:07:03,42.805,6.029,-0.025,0.055,0.027,110.0,109.0,107.0,13.3,1505.2,350.2,-0.8,1.8,2471.645,13.29,0.06,335.6
2023-12-16T06:10:03,42.805,6.029,-0.042,0.049,-0.016,112.0,110.0,107.0,13.4,1505.2,339.8,-0.7,1.8,2471.661,13.29,0.064,319.4
2023-12-16T06:13:03,42.805,6.029,-0.032,0.072,-0.001,112.0,109.0,106.0,13.3,1505.2,347.6,-0.8,1.8,2471.575,13.29,0.078,336.0
2023-12-16T06:16:03,42.805,6.029,-0.019,0.065,0.01,111.0,110.0,106.0,13.4,1505.2,358.4,-0.8,1.8,2471.603,13.29,0.067,343.7
2023-12-16T06:19:03,42.805,6.029,-0.02,0.054,0.03,111.0,110.0,105.0,13.3,1505.2,347.6,-0.8,1.8,2471.591,13.29,0.057,339.7
2023-12-16T06:22:03,42.805,6.029,-0.023,0.049,0.027,111.0,110.0,106.0,13.3,1505.2,348.5,-0.8,1.8,2471.596,13.29,0.054,334.9
2023-12-16T06:25:03,42.805,6.029,-0.013,0.048,0.01,110.0,110.0,107.0,13.4,1505.2,357.6,-0.8,1.8,2471.624,13.29,0.049,344.8
2023-12-16T06:28:03,42.805,6.029,-0.03,0.072,0.001,111.0,110.0,106.0,13.3,1505.2,342.3,-0.8,1.8,2471.596,13.29,0.077,337.4
2023-12-16T06:31:03,42.805,6.029,-0.06,0.044,0.051,111.0,109.0,107.0,13.3,1505.2,346.9,-0.8,1.8,2471.622,13.29,0.074,306.3
2023-12-16T06:34:03,42.805,6.029,-0.034,0.063,0.029,111.0,110.0,107.0,13.3,1505.2,339.3,-0.8,1.8,2471.615,13.29,0.071,331.6
2023-12-16T06:37:03,42.805,6.029,-0.008,0.063,0.009,110.0,110.0,107.0,13.4,1505.2,1.6,-0.8,1.8,2471.607,13.29,0.063,352.8
2023-12-16T06:40:03,42.805,6.029,-0.017,0.06,0.017,112.0,110.0,107.0,13.4,1505.2,350.0,-0.7,1.8,2471.599,13.29,0.062,344.2
2023-12-16T06:43:03,42.805,6.029,-0.013,0.057,0.015,110.0,110.0,107.0,13.4,1505.2,340.6,-0.8,1.8,2471.637,13.29,0.058,347.2
2023-12-16T06:46:03,42.805,6.029,-0.01,0.059,0.0,112.0,110.0,107.0,13.3,1505.2,351.9,-0.8,1.8,2471.609,13.29,0.059,350.4
2023-12-16T06:49:03,42.805,6.029,-0.02,0.036,0.038,111.0,111.0,106.0,13.3,1505.2,354.6,-0.8,1.8,2471.653,13.29,0.041,330.9
2023-12-16T06:52:03,42.805,6.029,-0.037,0.062,-0.003,111.0,110.0,106.0,13.4,1505.2,352.1,-0.7,1.8,2471.643,13.29,0.072,329.2
2023-12-16T06:55:03,42.805,6.029,-0.008,0.069,0.033,110.0,110.0,107.0,13.3,1505.2,356.9,-0.8,1.8,2471.653,13.29,0.069,353.4
2023-12-16T06:58:03,42.805,6.029,-0.004,0.063,0.029,111.0,108.0,107.0,13.3,1505.2,355.2,-0.8,1.8,2471.662,13.29,0.063,356.4
2023-12-16T07:04:03,42.805,6.029,-0.016,0.044,0.004,110.0,109.0,106.0,13.4,1505.2,354.0,-0.7,1.8,2471.675,13.29,0.046,340.0
2023-12-16T07:07:03,42.805,6.029,-0.026,0.04,0.014,111.0,110.0,107.0,13.3,1505.2,345.1,-0.8,1.8,2471.676,13.29,0.047,327.0
2023-12-16T07:10:03,42.805,6.029,-0.028,0.059,0.008,111.0,110.0,107.0,13.3,1505.2,1.6,-0.7,1.8,2471.649,13.29,0.065,334.6
2023-12-16T07:13:03,42.805,6.029,-0.019,0.057,0.03,111.0,109.0,107.0,13.4,1505.2,351.4,-0.8,1.8,2471.669,13.29,0.06,341.6
2023-12-16T07:16:03,42.805,6.029,-0.037,0.05,0.011,110.0,109.0,107.0,13.4,1505.2,341.3,-0.8,1.8,2471.682,13.29,0.062,323.5
2023-12-16T07:19:03,42.805,6.029,-0.021,0.048,0.002,112.0,109.0,106.0,13.3,1505.2,346.9,-0.8,1.8,2471.688,13.29,0.052,336.4
2023-12-16T07:22:03,42.805,6.029,-0.044,0.034,0.02,110.0,110.0,107.0,13.4,1505.2,340.2,-0.7,1.8,2471.684,13.29,0.055,307.7
2023-12-16T07:25:03,42.805,6.029,0.001,0.054,-0.017,111.0,110.0,107.0,13.3,1505.2,353.3,-0.8,1.8,2471.673,13.29,0.054,1.1
2023-12-16T07:28:03,42.805,6.029,-0.017,0.055,-0.019,110.0,109.0,107.0,13.3,1505.2,350.8,-0.8,1.8,2471.647,13.29,0.057,342.8
2023-12-16T07:31:03,42.805,6.029,-0.03,0.031,0.024,110.0,109.0,106.0,13.3,1505.2,339.0,-0.8,1.8,2471.724,13.29,0.043,315.9
2023-12-16T07:34:03,42.805,6.029,-0.013,0.072,0.012,110.0,110.0,107.0,13.4,1505.2,359.1,-0.8,1.8,2471.709,13.29,0.073,349.8
2023-12-16T07:37:03,42.805,6.029,-0.034,0.038,-0.015,112.0,110.0,107.0,13.3,1505.2,339.2,-0.8,1.8,2471.638,13.29,0.05,318.2
2023-12-16T07:40:03,42.805,6.029,-0.015,0.064,-0.003,111.0,108.0,107.0,13.4,1505.2,359.2,-0.8,1.8,2471.664,13.29,0.065,346.8
2023-12-16T07:43:03,42.805,6.029,-0.027,0.046,0.004,111.0,109.0,107.0,13.4,1505.2,347.7,-0.8,1.8,2471.667,13.29,0.053,329.6
2023-12-16T07:46:03,42.805,6.029,-0.039,0.052,0.006,111.0,110.0,106.0,13.3,1505.2,349.1,-0.8,1.8,2471.653,13.29,0.064,323.1
2023-12-16T07:49:03,42.805,6.029,-0.028,0.027,0.029,111.0,110.0,106.0,13.4,1505.2,345.5,-0.8,1.8,2471.7,13.29,0.038,314.0
2023-12-16T07:52:03,42.805,6.029,-0.034,0.047,-0.017,109.0,110.0,106.0,13.4,1505.2,340.5,-0.7,1.8,2471.729,13.29,0.058,324.1
2023-12-16T07:55:03,42.805,6.029,-0.008,0.049,0.017,110.0,109.0,106.0,13.3,1505.2,1.6,-0.8,1.8,2471.711,13.29,0.049,350.7
2023-12-16T07:58:03,42.805,6.029,-0.016,0.043,-0.012,111.0,109.0,107.0,13.4,1505.2,356.4,-0.8,1.8,2471.673,13.29,0.045,339.6
2023-12-16T08:04:03,42.805,6.029,-0.018,0.052,0.016,110.0,110.0,106.0,13.4,1505.2,349.1,-0.7,1.8,2471.79,13.29,0.055,340.9
2023-12-16T08:07:03,42.805,6.029,-0.004,0.05,0.027,111.0,110.0,106.0,13.4,1505.2,4.0,-0.8,1.8,2471.779,13.29,0.05,355.4
2023-12-16T08:10:03,42.805,6.029,-0.012,0.037,-0.014,111.0,111.0,107.0,13.3,1505.2,356.6,-0.8,1.8,2471.773,13.29,0.038,342.0
2023-12-16T08:13:03,42.805,6.029,-0.039,0.029,0.018,110.0,109.0,107.0,13.3,1505.2,338.4,-0.8,1.8,2471.725,13.29,0.048,306.6
2023-12-16T08:16:03,42.805,6.029,0.0,0.028,0.018,111.0,109.0,106.0,13.3,1505.2,359.1,-0.8,1.8,2471.738,13.29,0.028,0.0
2023-12-16T08:19:03,42.805,6.029,-0.033,0.056,0.012,110.0,110.0,106.0,13.3,1505.2,351.1,-0.8,1.8,2471.75,13.29,0.064,329.5
2023-12-16T08:22:03,42.805,6.029,-0.015,0.048,-0.012,111.0,111.0,106.0,13.4,1505.2,340.1,-0.8,1.8,2471.771,13.29,0.05,342.6
2023-12-16T08:25:03,42.805,6.029,-0.023,0.047,0.018,110.0,108.0,106.0,13.3,1505.2,344.6,-0.8,1.8,2471.738,13.29,0.052,333.9
2023-12-16T08:28:03,42.805,6.029,-0.018,0.048,0.018,110.0,109.0,105.0,13.4,1505.2,357.7,-0.8,1.8,2471.695,13.29,0.051,339.4
2023-12-16T08:31:03,42.805,6.029,-0.036,0.036,-0.027,111.0,109.0,107.0,13.4,1505.2,352.7,-0.8,1.8,2471.765,13.29,0.05,315.0
2023-12-16T08:34:03,42.805,6.029,0.001,0.047,-0.005,110.0,110.0,107.0,13.3,1505.2,2.4,-0.8,1.8,2471.742,13.29,0.047,1.2
2023-12-16T08:37:03,42.805,6.029,-0.03,0.048,0.013,111.0,110.0,106.0,13.4,1505.2,351.3,-0.8,1.8,2471.716,13.29,0.056,328.0
2023-12-16T08:40:03,42.805,6.029,-0.031,0.057,-0.027,110.0,110.0,106.0,13.4,1505.2,343.4,-0.8,1.8,2471.748,13.29,0.064,331.5
2023-12-16T08:43:03,42.805,6.029,-0.036,0.058,-0.003,110.0,110.0,106.0,13.3,1505.2,355.2,-0.8,1.8,2471.757,13.29,0.068,328.2
2023-12-16T08:46:03,42.805,6.029,-0.022,0.041,0.009,111.0,109.0,106.0,13.3,1505.2,346.1,-0.8,1.8,2471.796,13.29,0.046,331.8
2023-12-16T08:49:03,42.805,6.029,-0.049,0.06,0.004,111.0,109.0,107.0,13.4,1505.2,345.0,-0.7,1.8,2471.705,13.29,0.077,320.8
2023-12-16T08:52:03,42.805,6.029,-0.018,0.057,0.009,110.0,110.0,108.0,13.4,1505.2,356.8,-0.8,1.8,2471.76,13.29,0.059,342.5
2023-12-16T08:55:03,42.805,6.029,-0.036,0.049,0.026,111.0,109.0,107.0,13.3,1505.2,348.9,-0.8,1.8,2471.744,13.29,0.06,323.7
2023-12-16T08:58:03,42.805,6.029,-0.025,0.033,-0.001,111.0,110.0,107.0,13.3,1505.2,337.4,-0.8,1.8,2471.744,13.29,0.041,322.8
2023-12-16T09:04:03,42.805,6.029,-0.011,0.035,0.005,111.0,109.0,108.0,13.3,1505.2,351.7,-0.7,1.8,2471.83,13.29,0.036,342.6
2023-12-16T09:07:03,42.805,6.029,-0.03,0.048,0.002,109.0,109.0,107.0,13.4,1505.2,356.0,-0.7,1.8,2471.825,13.29,0.056,328.0
2023-12-16T09:10:03,42.805,6.029,-0.039,0.044,0.012,111.0,110.0,106.0,13.4,1505.2,345.5,-0.8,1.8,2471.803,13.29,0.058,318.4
2023-12-16T09:13:03,42.805,6.029,-0.021,0.048,0.029,112.0,110.0,105.0,13.4,1505.2,350.3,-0.8,1.8,2471.794,13.29,0.052,336.4
2023-12-16T09:16:03,42.805,6.029,-0.033,0.047,0.01,111.0,110.0,107.0,13.4,1505.2,356.9,-0.8,1.8,2471.794,13.29,0.057,324.9
2023-12-16T09:19:03,42.805,6.029,-0.027,0.04,0.025,111.0,110.0,107.0,13.3,1505.2,354.2,-0.8,1.8,2471.789,13.29,0.048,326.0
2023-12-16T09:22:03,42.805,6.029,-0.019,0.043,0.012,111.0,110.0,106.0,13.4,1505.2,343.2,-0.8,1.8,2471.799,13.29,0.047,336.2
2023-12-16T09:25:03,42.805,6.029,-0.014,0.064,0.013,112.0,109.0,106.0,13.3,1505.2,353.6,-0.8,1.8,2471.772,13.29,0.065,347.7
2023-12-16T09:28:03,42.805,6.029,-0.038,0.065,-0.003,111.0,110.0,107.0,13.4,1505.2,355.4,-0.8,1.8,2471.772,13.29,0.075,329.7
2023-12-16T09:31:03,42.805,6.029,-0.013,0.032,0.009,111.0,110.0,107.0,13.4,1505.2,352.3,-0.7,1.8,2471.754,13.29,0.034,337.9
2023-12-16T09:34:03,42.805,6.029,0.002,0.041,-0.029,111.0,109.0,107.0,13.3,1505.2,351.0,-0.7,1.8,2471.732,13.29,0.041,2.8
2023-12-16T09:37:03,42.805,6.029,-0.043,0.056,0.009,111.0,109.0,107.0,13.4,1505.2,337.3,-0.8,1.8,2471.78,13.29,0.07,322.5
2023-12-16T09:40:03,42.805,6.029,-0.04,0.053,-0.001,111.0,109.0,106.0,13.4,1505.2,347.8,-0.8,1.8,2471.76,13.29,0.066,323.0
2023-12-16T09:43:03,42.805,6.029,-0.01,0.028,0.032,110.0,110.0,106.0,13.4,1505.2,338.6,-0.7,1.8,2471.789,13.29,0.029,340.4
2023-12-16T09:46:03,42.805,6.029,-0.031,0.042,0.0,111.0,109.0,107.0,13.3,1505.2,338.2,-0.8,1.8,2471.799,13.29,0.052,323.6
2023-12-16T09:49:03,42.805,6.029,-0.038,0.046,-0.025,111.0,109.0,106.0,13.3,1505.2,348.5,-0.7,1.8,2471.75,13.29,0.059,320.4
2023-12-16T09:52:03,42.805,6.029,-0.017,0.04,-0.002,110.0,110.0,107.0,13.4,1505.2,344.7,-0.8,1.9,2471.794,13.29,0.043,337.0
2023-12-16T09:55:03,42.805,6.029,-0.024,0.023,0.005,112.0,110.0,107.0,13.4,1505.2,356.5,-0.8,1.8,2471.781,13.29,0.033,313.8
2023-12-16T09:58:03,42.805,6.029,-0.028,0.038,-0.011,111.0,109.0,106.0,13.4,1505.2,348.8,-0.7,1.8,2471.801,13.29,0.047,323.6